Location: Ocean City
(38.3360°N, 75.0850°W)
Time: 02:25:53
(UTC-05:00)

Explorer 11/Cluster Stage 4 - Pass Details

Date: 21 November 2019
Orbit: 467 x 1259 km, 28.8° (Epoch: 15 December)

Event Time Altitude Azimuth Distance (km) Brightness Sun altitude
Rises 23:09:39 0° 261° (W) 3,563 - -70.1°
Reaches altitude 10° 23:12:40 10° 247° (WSW) 2,754 - -70.3°
Maximum altitude 23:17:51 23° 198° (SSW) 2,142 - -70.7°
Drops below altitude 10° 23:23:38 10° 150° (SSE) 3,115 - -71.1°
Sets 23:27:18 0° 137° (SE) 4,148 - -71.3°
